| time (UTC) | temp C | wind direction | speed KPH | gust KPH | rain 1hr cm | rain 24hr cm | rain mn cm | humidity % | barometer mb |
| 20260903050446 | 14 | 135 | 1.6 | 3.2 | 0.00 | 0.00 | 0.00 | 95 | 1021.9 |
| 20260903044544 | 14 | 202 | 0.0 | 3.2 | 0.00 | 0.00 | 0.00 | 95 | 1022.1 |
| 20260903043546 | 14 | 135 | 3.2 | 4.8 | 0.00 | 0.00 | 0.00 | 95 | 1022.1 |
| 20260903042644 | 14 | 135 | 0.0 | 1.6 | 0.00 | 0.00 | 0.00 | 95 | 1022.1 |
| 20260903041647 | 14 | 180 | 1.6 | 4.8 | 0.00 | 0.00 | 0.00 | 95 | 1022.2 |
| 20260903040646 | 14 | 135 | 4.8 | 6.4 | 0.00 | 0.00 | 0.00 | 94 | 1022.4 |
| 20260903035728 | 14 | 135 | 3.2 | 6.4 | 0.00 | 0.00 | 0.00 | 95 | 1022.4 |
| 20260903034727 | 14 | 135 | 3.2 | 4.8 | 0.00 | 0.00 | 0.00 | 95 | 1022.4 |
| 20260903033826 | 14 | 195 | 4.8 | 6.4 | 0.00 | 0.00 | 0.00 | 95 | 1022.5 |
| 20260903032828 | 14 | 154 | 9.7 | 16.1 | 0.00 | 0.00 | 0.00 | 95 | 1022.3 |
| 20260903030827 | 14 | 191 | 3.2 | 8.0 | 0.00 | 0.00 | 0.00 | 95 | 1022.9 |
| 20260903025827 | 14 | 149 | 6.4 | 9.7 | 0.00 | 0.00 | 0.00 | 94 | 1022.8 |
| 20260903024828 | 14 | 171 | 6.4 | 8.0 | 0.00 | 0.00 | 0.00 | 93 | 1022.8 |
| 20260903023827 | 13 | 174 | 1.6 | 4.8 | 0.00 | 0.00 | 0.00 | 94 | 1022.9 |
| 20260903022827 | 13 | 150 | 0.0 | 3.2 | 0.00 | 0.00 | 0.00 | 94 | 1022.6 |
| 20260903022728 | 13 | 135 | 0.0 | 1.6 | 0.00 | 0.00 | 0.00 | 93 | 1022.7 |
| 20260903021728 | 13 | 131 | 6.4 | 12.9 | 0.00 | 0.00 | 0.00 | 94 | 1022.6 |
| 20260903020826 | 13 | 180 | 0.0 | 1.6 | 0.00 | 0.00 | 0.00 | 94 | 1022.8 |
| 20260903015829 | 13 | 167 | 1.6 | 6.4 | 0.00 | 0.00 | 0.00 | 94 | 1022.8 |
| 20260903014826 | 13 | 146 | 6.4 | 9.7 | 0.00 | 0.00 | 0.00 | 93 | 1022.8 |
| 20260903013828 | 14 | 166 | 3.2 | 8.0 | 0.00 | 0.00 | 0.00 | 93 | 1022.9 |
| 20260903012827 | 14 | 128 | 4.8 | 8.0 | 0.00 | 0.00 | 0.00 | 92 | 1022.9 |
| 20260903011828 | 14 | 162 | 1.6 | 6.4 | 0.00 | 0.00 | 0.00 | 92 | 1022.7 |
| 20260903010828 | 14 | 156 | 3.2 | 11.3 | 0.00 | 0.00 | 0.00 | 91 | 1022.7 |
| 20260903005827 | 14 | 146 | 4.8 | 8.0 | 0.00 | 0.00 | 0.00 | 92 | 1023.0 |
| 20260903004828 | 13 | 134 | 8.0 | 11.3 | 0.00 | 0.00 | 0.00 | 90 | 1023.1 |
| 20260903004726 | 13 | 142 | 6.4 | 12.9 | 0.00 | 0.00 | 0.00 | 91 | 1023.2 |
| 20260903003728 | 13 | 135 | 4.8 | 9.7 | 0.00 | 0.00 | 0.00 | 90 | 1023.2 |
| 20260903002729 | 13 | 138 | 6.4 | 9.7 | 0.00 | 0.00 | 0.00 | 89 | 1023.3 |
| 20260903001827 | 13 | 180 | 6.4 | 11.3 | 0.00 | 0.00 | 0.00 | 89 | 1023.1 |
| 20260903000827 | 13 | 153 | 6.4 | 9.7 | 0.00 | 0.00 | 0.00 | 89 | 1023.0 |
| 20260902235826 | 13 | 135 | 1.6 | 3.2 | 0.00 | 0.00 | 0.00 | 89 | 1023.0 |
| 20260902234827 | 13 | 156 | 3.2 | 6.4 | 0.00 | 0.00 | 0.00 | 89 | 1022.9 |
| 20260902234728 | 13 | 166 | 0.0 | 4.8 | 0.00 | 0.00 | 0.00 | 88 | 1022.9 |
| 20260902234628 | 13 | 135 | 0.0 | 0.0 | 0.00 | 0.00 | 0.00 | 88 | 1023.0 |
| 20260902233627 | 13 | 135 | 3.2 | 4.8 | 0.00 | 0.00 | 0.00 | 88 | 1023.0 |
| 20260902232627 | 13 | 135 | 3.2 | 4.8 | 0.00 | 0.00 | 0.00 | 88 | 1023.0 |
| 20260902232528 | 13 | 135 | 3.2 | 4.8 | 0.00 | 0.00 | 0.00 | 88 | 1023.0 |
| 20260902231625 | 13 | 157 | 3.2 | 4.8 | 0.00 | 0.00 | 0.00 | 88 | 1023.2 |
| 20260902230629 | 13 | 135 | 6.4 | 9.7 | 0.00 | 0.00 | 0.00 | 88 | 1023.4 |
| 20260902230527 | 13 | 135 | 3.2 | 6.4 | 0.00 | 0.00 | 0.00 | 88 | 1023.5 |
| 20260902225527 | 13 | 152 | 6.4 | 8.0 | 0.00 | 0.00 | 0.00 | 87 | 1023.5 |
| 20260902224527 | 14 | 152 | 6.4 | 8.0 | 0.00 | 0.00 | 0.00 | 85 | 1023.4 |
| 20260902223528 | 14 | 121 | 1.6 | 4.8 | 0.00 | 0.00 | 0.00 | 86 | 1023.7 |
| 20260902221626 | 14 | 124 | 9.7 | 14.5 | 0.00 | 0.00 | 0.00 | 84 | 1023.6 |
| 20260902220628 | 15 | 146 | 8.0 | 16.1 | 0.00 | 0.00 | 0.00 | 83 | 1023.6 |
| 20260902215627 | 15 | 125 | 8.0 | 14.5 | 0.00 | 0.00 | 0.00 | 82 | 1023.8 |
| 20260902214625 | 15 | 148 | 6.4 | 9.7 | 0.00 | 0.00 | 0.00 | 81 | 1023.9 |
| 20260902213626 | 15 | 128 | 4.8 | 9.7 | 0.00 | 0.00 | 0.00 | 80 | 1023.8 |
| 20260902212627 | 15 | 139 | 9.7 | 14.5 | 0.00 | 0.00 | 0.00 | 79 | 1023.8 |
| 20260902211626 | 15 | 129 | 3.2 | 8.0 | 0.00 | 0.00 | 0.00 | 79 | 1023.7 |
| 20260902211529 | 15 | 143 | 4.8 | 11.3 | 0.00 | 0.00 | 0.00 | 79 | 1023.8 |
| 20260902210527 | 16 | 125 | 8.0 | 11.3 | 0.00 | 0.00 | 0.00 | 78 | 1023.9 |
| 20260902205527 | 16 | 144 | 9.7 | 14.5 | 0.00 | 0.00 | 0.00 | 77 | 1023.9 |
| 20260902204529 | 16 | 125 | 8.0 | 11.3 | 0.00 | 0.00 | 0.00 | 77 | 1024.0 |
| 20260902203527 | 16 | 125 | 9.7 | 12.9 | 0.00 | 0.00 | 0.00 | 76 | 1024.1 |
| 20260902202626 | 16 | 126 | 11.3 | 17.7 | 0.00 | 0.00 | 0.00 | 76 | 1024.1 |
| 20260902201628 | 16 | 127 | 8.0 | 17.7 | 0.00 | 0.00 | 0.00 | 75 | 1024.2 |
| 20260902201542 | 16 | 141 | 9.7 | 12.9 | 0.00 | 0.00 | 0.00 | 75 | 1024.2 |
| 20260902200527 | 17 | 129 | 12.9 | 19.3 | 0.00 | 0.00 | 0.00 | 74 | 1024.1 |
| 20260902195528 | 17 | 118 | 9.7 | 14.5 | 0.00 | 0.00 | 0.00 | 73 | 1024.3 |
| 20260902195426 | 17 | 123 | 3.2 | 9.7 | 0.00 | 0.00 | 0.00 | 73 | 1024.4 |
| 20260902194427 | 17 | 121 | 8.0 | 12.9 | 0.00 | 0.00 | 0.00 | 73 | 1024.3 |
| 20260902192526 | 17 | 128 | 11.3 | 17.7 | 0.00 | 0.00 | 0.00 | 72 | 1024.3 |
| 20260902191527 | 17 | 128 | 8.0 | 12.9 | 0.00 | 0.00 | 0.00 | 70 | 1024.2 |
| 20260902190527 | 17 | 135 | 8.0 | 16.1 | 0.00 | 0.00 | 0.00 | 70 | 1024.0 |
| 20260902185527 | 18 | 106 | 8.0 | 12.9 | 0.00 | 0.00 | 0.00 | 69 | 1024.2 |
| 20260902184529 | 18 | 120 | 11.3 | 19.3 | 0.00 | 0.00 | 0.00 | 69 | 1024.0 |
| 20260902183626 | 18 | 115 | 12.9 | 24.1 | 0.00 | 0.00 | 0.00 | 69 | 1024.3 |
| 20260902181726 | 18 | 121 | 9.7 | 19.3 | 0.00 | 0.00 | 0.00 | 68 | 1024.2 |
| 20260902180825 | 18 | 107 | 8.0 | 14.5 | 0.00 | 0.00 | 0.00 | 69 | 1024.3 |
| 20260902174827 | 18 | 107 | 9.7 | 19.3 | 0.00 | 0.00 | 0.00 | 67 | 1024.6 |
| 20260902174728 | 18 | 110 | 11.3 | 24.1 | 0.00 | 0.00 | 0.00 | 66 | 1024.5 |
| 20260902173728 | 18 | 114 | 14.5 | 24.1 | 0.00 | 0.00 | 0.00 | 66 | 1024.7 |
| 20260902173627 | 18 | 115 | 11.3 | 19.3 | 0.00 | 0.00 | 0.00 | 65 | 1024.7 |
| 20260902172726 | 18 | 140 | 8.0 | 16.1 | 0.00 | 0.00 | 0.00 | 64 | 1024.7 |
| 20260902172626 | 18 | 117 | 11.3 | 19.3 | 0.00 | 0.00 | 0.00 | 63 | 1024.8 |
| 20260902171628 | 18 | 118 | 12.9 | 20.9 | 0.00 | 0.00 | 0.00 | 63 | 1024.8 |
| 20260902170726 | 19 | 77 | 3.2 | 11.3 | 0.00 | 0.00 | 0.00 | 64 | 1024.9 |
| 20260902164727 | 18 | 96 | 8.0 | 12.9 | 0.00 | 0.00 | 0.00 | 64 | 1024.8 |
| 20260902164627 | 18 | 105 | 11.3 | 16.1 | 0.00 | 0.00 | 0.00 | 64 | 1024.9 |
| 20260902162629 | 18 | 129 | 9.7 | 14.5 | 0.00 | 0.00 | 0.00 | 65 | 1025.0 |
| 20260902161627 | 18 | 88 | 12.9 | 19.3 | 0.00 | 0.00 | 0.00 | 66 | 1024.8 |
| 20260902155727 | 18 | 97 | 11.3 | 19.3 | 0.00 | 0.00 | 0.00 | 65 | 1024.9 |
| 20260902154825 | 18 | 85 | 14.5 | 22.5 | 0.00 | 0.00 | 0.00 | 64 | 1024.8 |
| 20260902153828 | 18 | 102 | 14.5 | 19.3 | 0.00 | 0.00 | 0.00 | 64 | 1024.8 |
| 20260902152925 | 18 | 97 | 12.9 | 17.7 | 0.00 | 0.00 | 0.00 | 64 | 1024.7 |
| 20260902152826 | 18 | 102 | 11.3 | 22.5 | 0.00 | 0.00 | 0.00 | 65 | 1024.7 |
| 20260902151925 | 18 | 102 | 11.3 | 17.7 | 0.00 | 0.00 | 0.00 | 65 | 1024.8 |
| 20260902145927 | 18 | 76 | 11.3 | 16.1 | 0.00 | 0.00 | 0.00 | 68 | 1025.0 |
| 20260902144927 | 18 | 105 | 6.4 | 17.7 | 0.00 | 0.00 | 0.00 | 69 | 1025.1 |
| 20260902141927 | 18 | 98 | 6.4 | 12.9 | 0.00 | 0.00 | 0.00 | 69 | 1025.1 |
| 20260902140926 | 18 | 118 | 8.0 | 12.9 | 0.00 | 0.00 | 0.00 | 70 | 1025.1 |
| 20260902135925 | 17 | 107 | 9.7 | 17.7 | 0.00 | 0.00 | 0.00 | 72 | 1024.9 |
| 20260902134927 | 17 | 87 | 8.0 | 11.3 | 0.00 | 0.00 | 0.00 | 74 | 1024.8 |
| 20260902134827 | 17 | 84 | 9.7 | 12.9 | 0.00 | 0.00 | 0.00 | 73 | 1024.7 |
| 20260902133829 | 17 | 83 | 8.0 | 11.3 | 0.00 | 0.00 | 0.00 | 75 | 1024.4 |
| 20260902132828 | 16 | 69 | 4.8 | 9.7 | 0.00 | 0.00 | 0.00 | 77 | 1024.5 |
| 20260902131827 | 16 | 90 | 4.8 | 9.7 | 0.00 | 0.00 | 0.00 | 77 | 1024.4 |
| 20260902130827 | 16 | 50 | 8.0 | 12.9 | 0.00 | 0.00 | 0.00 | 78 | 1024.3 |
| 20260902130725 | 16 | 82 | 8.0 | 11.3 | 0.00 | 0.00 | 0.00 | 77 | 1024.3 |
| 20260902125727 | 16 | 67 | 3.2 | 6.4 | 0.00 | 0.00 | 0.00 | 77 | 1024.5 |
| 20260902124728 | 16 | 85 | 6.4 | 9.7 | 0.00 | 0.00 | 0.00 | 75 | 1024.7 |
| 20260902123727 | 16 | 135 | 0.0 | 4.8 | 0.00 | 0.00 | 0.00 | 76 | 1024.7 |
| 20260902122727 | 16 | 30 | 3.2 | 4.8 | 0.00 | 0.00 | 0.00 | 78 | 1024.7 |
| 20260902121827 | 16 | 45 | 3.2 | 4.8 | 0.00 | 0.00 | 0.00 | 78 | 1024.6 |
| 20260902121728 | 16 | 36 | 4.8 | 6.4 | 0.00 | 0.00 | 0.00 | 77 | 1024.5 |
| 20260902120728 | 15 | 28 | 0.0 | 3.2 | 0.00 | 0.00 | 0.00 | 78 | 1024.6 |
| 20260902114826 | 15 | 353 | 3.2 | 6.4 | 0.00 | 0.00 | 0.00 | 80 | 1024.5 |
| 20260902113925 | 15 | 22 | 6.4 | 8.0 | 0.00 | 0.00 | 0.00 | 81 | 1024.5 |
| 20260902112928 | 15 | 72 | 4.8 | 4.8 | 0.00 | 0.00 | 0.00 | 82 | 1024.6 |
| 20260902112026 | 15 | 66 | 8.0 | 8.0 | 0.00 | 0.00 | 0.00 | 82 | 1024.7 |
| 20260902111125 | 14 | 37 | 3.2 | 6.4 | 0.00 | 0.00 | 0.00 | 82 | 1024.7 |
| 20260902110128 | 14 | 45 | 0.0 | 1.6 | 0.00 | 0.00 | 0.00 | 84 | 1024.9 |
| 20260902105126 | 13 | 45 | 0.0 | 0.0 | 0.00 | 0.00 | 0.00 | 84 | 1024.7 |
| 20260902105028 | 13 | 45 | 0.0 | 1.6 | 0.00 | 0.00 | 0.00 | 84 | 1024.6 |
| 20260902104127 | 13 | 90 | 0.0 | 0.0 | 0.00 | 0.00 | 0.00 | 83 | 1024.7 |
| 20260902103128 | 13 | 67 | 0.0 | 0.0 | 0.00 | 0.00 | 0.00 | 85 | 1024.7 |
| 20260902102126 | 13 | 45 | 1.6 | 1.6 | 0.00 | 0.00 | 0.00 | 85 | 1024.6 |
| 20260902101129 | 13 | 90 | 0.0 | 0.0 | 0.00 | 0.00 | 0.00 | 85 | 1024.5 |
| 20260902100226 | 13 | 90 | 0.0 | 0.0 | 0.00 | 0.00 | 0.00 | 86 | 1024.4 |
| 20260902095228 | 13 | 90 | 0.0 | 0.0 | 0.00 | 0.00 | 0.00 | 86 | 1024.4 |
| 20260902094326 | 13 | 90 | 0.0 | 1.6 | 0.00 | 0.00 | 0.00 | 85 | 1024.2 |
| 20260902093326 | 13 | 90 | 0.0 | 0.0 | 0.00 | 0.00 | 0.00 | 85 | 1024.3 |
| 20260902092326 | 13 | 90 | 0.0 | 0.0 | 0.00 | 0.00 | 0.00 | 83 | 1024.2 |
| 20260902092226 | 13 | 90 | 0.0 | 0.0 | 0.00 | 0.00 | 0.00 | 83 | 1024.2 |
| 20260902091226 | 13 | 90 | 0.0 | 0.0 | 0.00 | 0.00 | 0.00 | 82 | 1024.3 |
| 20260902090226 | 13 | 90 | 0.0 | 1.6 | 0.00 | 0.00 | 0.00 | 82 | 1024.3 |
| 20260902084226 | 13 | 90 | 0.0 | 1.6 | 0.00 | 0.00 | 0.00 | 79 | 1024.0 |
| 20260902084126 | 13 | 90 | 0.0 | 1.6 | 0.00 | 0.00 | 0.00 | 80 | 1024.0 |
| 20260902083126 | 13 | 90 | 0.0 | 1.6 | 0.00 | 0.00 | 0.00 | 79 | 1024.0 |
| 20260902082226 | 14 | 90 | 0.0 | 0.0 | 0.00 | 0.00 | 0.00 | 78 | 1024.0 |
| 20260902081225 | 14 | 90 | 0.0 | 0.0 | 0.00 | 0.00 | 0.00 | 78 | 1024.0 |
| 20260902081127 | 14 | 90 | 0.0 | 0.0 | 0.00 | 0.00 | 0.00 | 78 | 1024.0 |
| 20260902075025 | 15 | 90 | 3.2 | 3.2 | 0.00 | 0.00 | 0.00 | 77 | 1023.9 |
| 20260902074026 | 15 | 102 | 8.0 | 9.7 | 0.00 | 0.00 | 0.00 | 77 | 1023.5 |
| 20260902073027 | 15 | 67 | 3.2 | 4.8 | 0.00 | 0.00 | 0.00 | 76 | 1023.5 |
| 20260902072026 | 15 | 135 | 0.0 | 0.0 | 0.00 | 0.00 | 0.00 | 75 | 1023.7 |
| 20260902071027 | 15 | 135 | 1.6 | 3.2 | 0.00 | 0.00 | 0.00 | 75 | 1023.5 |
| 20260902064028 | 15 | 135 | 4.8 | 4.8 | 0.00 | 0.00 | 0.00 | 72 | 1023.5 |
| 20260902063126 | 15 | 90 | 1.6 | 3.2 | 0.00 | 0.00 | 0.00 | 72 | 1023.4 |
| 20260902062125 | 15 | 135 | 6.4 | 9.7 | 0.00 | 0.00 | 0.00 | 70 | 1023.4 |
| 20260902061225 | 15 | 135 | 8.0 | 9.7 | 0.00 | 0.00 | 0.00 | 70 | 1023.3 |
| 20260902060228 | 16 | 135 | 1.6 | 3.2 | 0.00 | 0.00 | 0.00 | 68 | 1023.3 |
| 20260902055226 | 16 | 135 | 3.2 | 4.8 | 0.00 | 0.00 | 0.00 | 68 | 1023.4 |
| 20260902054227 | 16 | 90 | 0.0 | 1.6 | 0.00 | 0.00 | 0.00 | 66 | 1023.2 |
| 20260902053325 | 16 | 135 | 3.2 | 4.8 | 0.00 | 0.00 | 0.00 | 66 | 1023.0 |